Location: Aulnoy
(48.8410°N, 3.0967°E)
Time: 18:48:01
(UTC+00:00)

Cosmos 1758 Rocket - Pass Details

Date: 09 February 2023
Orbit: 601 x 634 km, 82.5° (Epoch: 26 March)

Event Time Altitude Azimuth Distance (km) Brightness Sun altitude
Rises 19:02:49 0° 191° (S) 2,854 7.1 -20.9°
Reaches altitude 10° 19:05:01 10° 192° (SSW) 1,959 6.2 -21.3°
Maximum altitude 19:09:21 81° 280° (W) 628 3.5 -22.0°
Drops below altitude 10° 19:13:47 10° 8° (N) 1,997 6.1 -22.7°
Sets 19:16:02 0° 10° (N) 2,913 7.0 -23.1°
